If you wish to contribute or participate in the discussions about articles you are invited to join SKYbrary as a registered user

 Actions

Chaitén Airfield

From SKYbrary Wiki

SCTN
Airport
ICAO: SCTN – IATA: WCH
Summary
Name Chaitén Airfield
Region South America and Caribbean
Territory Chile CL.gif
Location Chaiten, Los Lagos
Serving Chaiten
Elevation 3.962 m
13 ft
13 ft3.962 m
Type medium airport
Coordinates 42° 55' 58.11" S, 72° 41' 56.81" W
Runways
Designator Length Width Surface ROPS
13/31 1423 m4,668.635 ft
20 m65.617 ft
ASP /


METAR
Observation SCTN 112000Z 06003KT 9999 FEW012 BKN036 11/08 Q1019
Station CHAITEN
Date/Time 11 December 2019 20:00:00
Wind direction 60°
Wind speed 03 kts
Lowest cloud amount few clouds
Temperature 11°C
Dew point 8°C
Humidity 81%
QNH 1019 hPa
Weather condition n/a

Airport located near Chaitén, Los Lagos, Chile.

Climatology

Temperate oceanic climate (Köppen climate classification Cfb)

Maps

Terrain

Loading map...

Airport Layout

Loading map...


Accidents & Serious Incidents at or in vicinity of SCTN

None on SKYbrary